Karlovy Vary, Czech Republic

11:15 PM CEST on October 18, 2017 (GMT +0200)
Karlovy Vary

Weather History for LKKV - October, 2013

Change the Weather History Date:

Sunday, October 27, 2013

  Actual Average (EDQM) Record (EDQM)
Temperature  
Mean Temperature 56 °F -  
Max Temperature 62 °F 47 °F 61 °F (2013)
Min Temperature 50 °F 38 °F 24 °F (1997)
Degree Days  
Heating Degree Days 9    
Growing Degree Days 6 (Base 50)    
Moisture  
Dew Point 47 °F    
Average Humidity 73    
Maximum Humidity 100    
Minimum Humidity 52    
Precipitation  
Precipitation 0.00 in - - ()
Sea Level Pressure  
Sea Level Pressure 29.87 in    
Wind  
Wind Speed 7 mph ()    
Max Wind Speed 17 mph    
Max Gust Speed 43 mph    
Visibility 6.2 miles    
Events Fog , Rain    
Averages and records for this station are not official NWS values.
T = Trace of Precipitation, MM = Missing Value Source: Averaged Metar Reports

Daily Weather History Graph

Daily Weather History Graph

Search for Another Location

Airport or City:

Trip Planner

Search our weather history database for the weather conditions in past years. The results will help you decide how hot, cold, wet, or windy it might be!

Date:

Astronomy

Oct. 27, 2013 Rise Set
Actual Time 6:50 AM CET 4:53 PM CET
Civil Twilight 6:16 AM CET 5:27 PM CET
Nautical Twilight 5:38 AM CET 6:05 PM CET
Astronomical Twilight 5:00 AM CET 6:42 PM CET
Moon 11:52 PM CET (10/27) 1:30 PM CET (10/27)
Length of Visible Light 11h 10m
Length of Day
10h 03m
Last Quarter, 45% of the Moon is Illuminated
Oct 27
Last Quarter
Nov 3
New
Nov 10
First Quarter
Nov 17
Full
Nov 25
Last Quarter

Hourly Weather History & Observations

Time (CET) Temp. Dew Point Humidity Pressure Visibility Wind Dir Wind Speed Gust Speed Precip Events Conditions
12:00 AM 50.0 °F 50.0 °F 100% 30.04 in - Calm Calm - N/A   Clear
1:00 AM 50.0 °F 48.2 °F 94% 30.01 in 6.2 mi East 2.3 mph - N/A Fog Shallow Fog
2:00 AM 50.0 °F 50.0 °F 100% 29.98 in 6.2 mi ESE 3.5 mph - N/A Fog Shallow Fog
2:00 AM 50.0 °F 48.2 °F 94% 29.98 in - East 4.6 mph - N/A   Clear
3:00 AM 50.0 °F 50.0 °F 100% 29.95 in 6.2 mi East 4.6 mph - N/A Fog Shallow Fog
4:00 AM 53.6 °F 50.0 °F 88% 29.92 in 6.2 mi ESE 4.6 mph - N/A Fog Shallow Fog
5:00 AM 57.2 °F 50.0 °F 77% 29.92 in - South 4.6 mph - N/A   Clear
6:00 AM 59.0 °F 50.0 °F 72% 29.92 in 6.2 mi SW 8.1 mph - N/A   Scattered Clouds
7:00 AM 59.0 °F 51.8 °F 77% 29.95 in 6.2 mi WSW 8.1 mph - N/A   Scattered Clouds
7:30 AM 57.2 °F 50.0 °F 77% 29.92 in - SW 5.8 mph - N/A   Clear
8:00 AM 57.2 °F 50.0 °F 77% 29.95 in 6.2 mi SW 5.8 mph - N/A   Partly Cloudy
8:30 AM 57.2 °F 48.2 °F 72% 29.92 in 6.2 mi SSW 5.8 mph - N/A Rain Light Rain
9:00 AM 57.2 °F 50.0 °F 77% 29.89 in 6.2 mi SW 6.9 mph - N/A   Partly Cloudy
9:30 AM 57.2 °F 48.2 °F 72% 29.89 in 6.2 mi SW 10.4 mph - N/A   Partly Cloudy
10:00 AM 57.2 °F 48.2 °F 72% 29.92 in 6.2 mi SW 11.5 mph - N/A   Scattered Clouds
10:30 AM 59.0 °F 50.0 °F 72% 29.89 in 6.2 mi SW 11.5 mph - N/A   Scattered Clouds
11:00 AM 59.0 °F 48.2 °F 67% 29.89 in 6.2 mi WSW 13.8 mph - N/A   Partly Cloudy
11:30 AM 59.0 °F 48.2 °F 67% 29.86 in 6.2 mi SW 16.1 mph 28.8 mph N/A   Partly Cloudy
12:00 PM 60.8 °F 48.2 °F 63% 29.86 in 6.2 mi SW 17.3 mph - N/A   Partly Cloudy
12:30 PM 60.8 °F 46.4 °F 59% 29.83 in 6.2 mi SW 13.8 mph - N/A   Partly Cloudy
1:00 PM 62.6 °F 46.4 °F 55% 29.83 in 6.2 mi SSW 12.7 mph - N/A   Partly Cloudy
1:30 PM 62.6 °F 46.4 °F 55% 29.83 in 6.2 mi SW 13.8 mph - N/A   Partly Cloudy
2:00 PM 62.6 °F 44.6 °F 52% 29.83 in - SW 12.7 mph - N/A   Clear
2:30 PM 62.6 °F 44.6 °F 52% 29.83 in 6.2 mi SW 10.4 mph - N/A   Partly Cloudy
3:00 PM 62.6 °F 44.6 °F 52% 29.80 in 6.2 mi SW 11.5 mph - N/A   Scattered Clouds
3:30 PM 60.8 °F 44.6 °F 55% 29.80 in 6.2 mi SW 8.1 mph - N/A   Mostly Cloudy
4:00 PM 60.8 °F 46.4 °F 59% 29.77 in - SW 8.1 mph - N/A   Clear
4:21 PM 59.0 °F 46.4 °F 63% 29.77 in 6.2 mi SW 8.1 mph - N/A Rain Light Rain
4:30 PM 59.0 °F 46.4 °F 63% 29.77 in 6.2 mi SW 8.1 mph - N/A Rain Light Rain
5:00 PM 55.4 °F 48.2 °F 77% 29.80 in - SW 9.2 mph - N/A   Clear
5:30 PM 53.6 °F 48.2 °F 82% 29.80 in - SW 11.5 mph - N/A   Clear
6:00 PM 53.6 °F 48.2 °F 82% 29.80 in 6.2 mi SW 10.4 mph 21.9 mph N/A   Partly Cloudy
6:30 PM 55.4 °F 46.4 °F 72% 29.80 in - SW 16.1 mph 28.8 mph N/A   Clear
6:35 PM 55.4 °F 42.8 °F 63% 29.80 in 6.2 mi WSW 15.0 mph 42.6 mph N/A Rain Light Rain
7:00 PM 55.4 °F 42.8 °F 63% 29.80 in - SW 15.0 mph - N/A   Clear
7:30 PM 53.6 °F 44.6 °F 72% 29.83 in - SW 16.1 mph 28.8 mph N/A   Clear
8:00 PM 51.8 °F 44.6 °F 76% 29.83 in 6.2 mi SW 11.5 mph 24.2 mph N/A   Partly Cloudy
9:00 PM 50.0 °F 44.6 °F 82% 29.86 in 6.2 mi SW 10.4 mph - N/A   Partly Cloudy
10:00 PM 50.0 °F 42.8 °F 76% 29.86 in 6.2 mi SW 8.1 mph - N/A   Scattered Clouds